Location: Kaarina
(60.4167°N, 22.4167°E)
Time: 02:23:31
(UTC+03:00)

NOSS 3-4 (A) - Pass Details

Date: 24 August 2019
Orbit: 910 x 1303 km, 63.4° (Epoch: 17 October)

Event Time Altitude Azimuth Distance (km) Brightness Sun altitude
Rises 22:59:09 0° 274° (W) 3,634 7.2 -12.4°
Reaches altitude 10° 23:01:39 10° 277° (W) 2,727 6.5 -12.6°
Maximum altitude 23:08:02 69° 1° (N) 1,111 4.0 -13.0°
Drops below altitude 10° 23:15:05 10° 85° (E) 2,994 5.8 -13.5°
Sets 23:17:56 0° 88° (E) 4,013 6.4 -13.7°
